Flag for U.S.A. Weather past 2 weeks in New Orleans, Louisiana, U.S.A.

Now
91 °F

Sunny.


Feels Like: 106 °F
Forecast: 79 / 94 °F
Wind: 8 mph from Northwest

Location: Lakefront Airport

Current Time: Aug 23, 2014 at 2:13:59 PM

Latest Report: Aug 23, 2014 at 1:53 PM


Visibility: 10 mi

Pressure: 29.98 "Hg

Humidity: 66%

Dew point: 78 °F

Location of New OrleansLocation

Historic Weather in New Orleans — Graph

°F

New Orleans temperature yesterday

Maximum temperature yesterday: 91 °F (at 4:53 PM)
Minimum temperature yesterday: 80 °F (at 12:53 AM)
Average temperature yesterday: 86 °F

Past Weeks' High & Low Weather Summary

 TemperatureHumidityPressure
High93 °F (Aug 8, 2:53 PM)90% (Aug 10, 2:53 AM)30.13 "Hg (Aug 10, 2:53 AM)
Low77 °F (Aug 10, 2:53 AM)39% (Aug 14, 5:53 PM)29.87 "Hg (Aug 12, 6:53 PM)
Average84 °F72%30.00 "Hg
* Reported Aug 8 12:53 PM — Aug 23 12:53 PM, New Orleans, Weather by CustomWeather, © 2014

Note: Actual official high and low records may vary slightly from our data, if they occured in-between our weather recording intervals... More about our weather records

Advertising

New Orleans weather history for previous 24 hours

 ConditionsComfort  
Time TempWeatherWind HumidityBarometerVisibility
12:53 PM
Aug 23
90 °FSunny.9 mph66%30.00 "Hg10 mi
11:53 AM89 °FSunny.8 mph70%30.01 "Hg10 mi
10:53 AM88 °FSunny.7 mph70%30.02 "Hg10 mi
9:53 AM87 °FSunny.8 mph72%30.03 "Hg10 mi
8:53 AM86 °FSunny.10 mph75%30.02 "Hg10 mi
7:53 AM84 °FSunny.13 mph80%30.02 "Hg10 mi
6:53 AM84 °FClear.14 mph80%30.01 "Hg10 mi
5:53 AM84 °FClear.14 mph83%30.01 "Hg10 mi
4:53 AM84 °FClear.12 mph83%29.99 "Hg10 mi
3:53 AM84 °FClear.9 mph80%29.98 "Hg10 mi
2:53 AM84 °FClear.8 mph77%29.98 "Hg10 mi
1:53 AM84 °FClear.8 mph77%29.99 "Hg10 mi
12:53 AM85 °FClear.10 mph75%30.00 "Hg10 mi
11:53 PM
Aug 22
86 °FClear.9 mph63%30.01 "Hg10 mi
10:53 PM87 °FClear.7 mph61%30.01 "Hg10 mi
9:53 PM88 °FClear.7 mph59%30.01 "Hg10 mi
8:53 PM87 °FClear.6 mph59%30.00 "Hg10 mi
7:53 PM89 °FSunny.No wind57%30.00 "Hg10 mi
6:53 PM90 °FSunny.3 mph56%30.00 "Hg10 mi
5:53 PM91 °FSunny.5 mph54%30.00 "Hg10 mi
4:53 PM91 °FPassing clouds.5 mph56%30.01 "Hg10 mi
3:53 PM90 °FSunny.5 mph59%30.03 "Hg10 mi
2:53 PM89 °FSunny.5 mph63%30.05 "Hg10 mi
Weather by CustomWeather, © 2014

See weather overviewHow to use our weather pages